Location: Bodest
(46.3000°N, 22.5667°E)
Time: 00:54:33
(UTC+00:00)

FENGYUN 1C DEB - Pass Details

Date: 05 April 2023
Orbit: 806 x 916 km, 98.8° (Epoch: 29 May)

Event Time Altitude Azimuth Distance (km) Brightness Sun altitude
Rises 19:35:34 0° 218° (SW) 3,538 ? -24.5°
Reaches altitude 10° 19:39:24 10° 244° (WSW) 2,592 ? -25.0°
Maximum altitude 19:42:11 14° 273° (W) 2,333 ? -25.3°
Drops below altitude 10° 19:44:57 10° 302° (WNW) 2,577 ? -25.7°
Sets 19:48:46 0° 328° (NNW) 3,501 ? -26.2°
